Date String (YYYY-MM-DD hh:mm:ss) UTC,Instrument flags,Ambient pressure (hPa),Sample flow (lpm),Bypass flow (lpm),Sample temperature (°C),Ambient temperature (°C),ASC tube jacket temperature (°C),LED temperature (°C),Box temperature (°C),Sample RH (%),Span deviation,Mass concentration (μg/m³),Mass concentration (μg/m³),Mass concentration (μg/m³)
DateTimeUTC,F1_M11,P_M11,Q1_M11,Q2_M11,T1_M11,T2_M11,T3_M11,T4_M11,T5_M11,U1_M11,ZSPAN_M11,X0_M11,X2_M11,X1_M11
2023-01-03 19:00:00,,0817.6,5.01,0.00,22.4,20.9,00.0,31.3,24.1,12.5,0000.0,0007.13,0003.24,0002.99
2023-01-03 19:01:00,,0817.5,5.00,0.00,22.4,20.9,00.0,31.3,24.1,12.5,0000.0,0007.56,0003.28,0003.05
2023-01-03 19:02:00,,0817.4,4.99,0.00,22.3,20.8,00.0,31.3,24.0,12.5,0000.0,0007.63,0003.33,0003.10
2023-01-03 19:03:00,,0817.5,5.00,0.00,22.3,20.7,00.0,31.3,23.9,12.4,0000.0,0007.36,0003.38,0003.14
2023-01-03 19:04:00,,0817.5,5.01,0.00,22.3,20.6,00.0,31.3,23.9,12.4,0000.0,0007.35,0003.42,0003.18
2023-01-03 19:05:00,,0817.5,5.01,0.00,22.2,20.5,00.0,31.3,23.8,12.5,0000.0,0007.47,0003.48,0003.21
2023-01-03 19:06:00,,0817.4,4.99,0.00,22.2,20.4,00.0,31.2,23.8,12.5,0000.0,0007.64,0003.51,0003.24
2023-01-03 19:07:00,,0817.4,5.00,0.00,22.2,20.4,00.0,31.2,23.8,12.6,0000.0,0007.66,0003.55,0003.27
2023-01-03 19:08:00,,0817.5,4.99,0.00,22.2,20.4,00.0,31.2,23.7,12.6,0000.0,0007.73,0003.60,0003.32
2023-01-03 19:09:00,,0817.5,5.00,0.00,22.1,20.3,00.0,31.2,23.7,12.6,0000.0,0007.54,0003.67,0003.38
2023-01-03 19:10:00,,0817.5,5.01,0.00,22.1,20.8,00.0,31.1,23.8,12.6,0000.0,0007.63,0003.77,0003.44
2023-01-03 19:11:00,,0817.5,5.01,0.00,22.2,21.9,00.0,31.1,24.1,12.6,0000.0,0007.61,0003.83,0003.49
2023-01-03 19:12:00,,0817.5,4.98,0.00,22.3,22.4,00.0,31.1,24.2,12.5,0000.0,0007.21,0003.87,0003.53
2023-01-03 19:13:00,,0817.4,4.99,0.00,22.3,22.0,00.0,31.1,24.2,12.4,0000.0,0007.25,0003.90,0003.57
2023-01-03 19:14:00,,0817.4,5.01,0.00,22.4,21.6,00.0,31.2,24.2,12.5,0000.0,0007.92,0003.92,0003.59
2023-01-03 19:15:00,,0817.4,5.00,0.00,22.3,21.3,00.0,31.2,24.1,12.5,0000.0,0008.03,0003.93,0003.61
2023-01-03 19:16:00,,0817.3,4.99,0.00,22.3,21.0,00.0,31.2,23.9,12.5,0000.0,0008.07,0003.94,0003.62
2023-01-03 19:17:00,,0817.3,4.99,0.00,22.2,20.7,00.0,31.2,23.8,12.6,0000.0,0007.89,0003.97,0003.65
2023-01-03 19:18:00,,0817.3,5.00,0.00,22.2,20.5,00.0,31.2,23.8,12.6,0000.0,0007.73,0003.99,0003.67
2023-01-03 19:19:00,,0817.4,5.02,0.00,22.2,20.4,00.0,31.1,23.7,12.7,0000.0,0007.79,0004.02,0003.69
2023-01-03 19:20:00,,0817.3,4.99,0.00,22.1,20.3,00.0,31.1,23.7,12.7,0000.0,0007.79,0004.01,0003.68
2023-01-03 19:21:00,,0817.3,4.99,0.00,22.1,20.2,00.0,31.1,23.6,12.7,0000.0,0007.66,0003.98,0003.66
2023-01-03 19:22:00,,0817.3,5.00,0.00,22.0,20.2,00.0,31.1,23.7,12.8,0000.0,0008.18,0003.97,0003.66
2023-01-03 19:23:00,,0817.3,5.01,0.00,22.0,20.2,00.0,31.1,23.6,12.8,0000.0,0008.99,0003.96,0003.67
2023-01-03 19:24:00,,0817.2,4.99,0.00,22.0,20.2,00.0,31.0,23.6,12.8,0000.0,0009.43,0003.98,0003.69
2023-01-03 19:25:00,,0817.2,5.02,0.00,22.0,20.2,00.0,31.0,23.5,12.8,0000.0,0009.12,0004.01,0003.71
2023-01-03 19:26:00,,0817.2,5.01,0.00,22.0,20.2,00.0,31.0,23.6,12.8,0000.0,0008.99,0004.04,0003.73
2023-01-03 19:27:00,,0817.2,5.00,0.00,22.0,20.3,00.0,31.0,23.6,12.9,0000.0,0009.00,0004.08,0003.77
2023-01-03 19:28:00,,0817.2,5.00,0.00,22.0,20.8,00.0,30.9,23.7,12.9,0000.0,0009.03,0004.12,0003.80
2023-01-03 19:29:00,,0817.2,5.01,0.00,22.1,22.0,00.0,30.9,24.0,12.8,0000.0,0009.13,0004.15,0003.82
2023-01-03 19:30:00,,0817.2,5.01,0.00,22.2,22.7,00.0,30.9,24.2,12.8,0000.0,0009.27,0004.19,0003.85
2023-01-03 19:31:00,,0817.2,4.97,0.00,22.3,22.4,00.0,31.0,24.2,12.7,0000.0,0009.49,0004.20,0003.87
2023-01-03 19:32:00,,0817.1,4.96,0.00,22.3,21.9,00.0,31.0,24.2,12.7,0000.0,0009.55,0004.23,0003.91
2023-01-03 19:33:00,,0817.1,4.98,0.00,22.3,21.5,00.0,31.1,24.0,12.7,0000.0,0009.08,0004.28,0003.95
2023-01-03 19:34:00,,0817.2,4.99,0.00,22.3,21.3,00.0,31.1,24.0,12.6,0000.0,0008.20,0004.32,0003.98
2023-01-03 19:35:00,,0817.1,5.02,0.00,22.3,21.1,00.0,31.1,24.0,12.7,0000.0,0007.97,0004.35,0004.02
2023-01-03 19:36:00,,0817.2,5.01,0.00,22.3,21.1,00.0,31.1,24.0,12.7,0000.0,0007.92,0004.39,0004.05
2023-01-03 19:37:00,,0817.1,4.97,0.00,22.3,21.0,00.0,31.1,24.0,12.7,0000.0,0008.30,0004.43,0004.09
2023-01-03 19:38:00,,0817.1,4.99,0.00,22.3,20.9,00.0,31.1,23.9,12.7,0000.0,0008.90,0004.43,0004.10
2023-01-03 19:39:00,,0817.0,5.00,0.00,22.2,20.8,00.0,31.1,23.9,12.7,0000.0,0008.86,0004.44,0004.13
2023-01-03 19:40:00,,0817.0,5.04,0.00,22.2,20.7,00.0,31.1,23.9,12.7,0000.0,0008.78,0004.44,0004.15
2023-01-03 19:41:00,,0817.0,4.97,0.00,22.2,20.7,00.0,31.1,23.8,12.7,0000.0,0008.69,0004.44,0004.19
2023-01-03 19:42:00,,0817.1,5.00,0.00,22.2,20.7,00.0,31.1,23.9,12.7,0000.0,0008.65,0004.50,0004.22
2023-01-03 19:43:00,,0817.0,4.98,0.00,22.2,20.7,00.0,31.1,23.9,12.7,0000.0,0008.75,0004.52,0004.23
2023-01-03 19:44:00,,0817.0,5.02,0.00,22.2,20.6,00.0,31.1,23.8,12.8,0000.0,0009.27,0004.53,0004.23
2023-01-03 19:45:00,,0817.0,5.00,0.00,22.1,20.6,00.0,31.1,23.8,12.8,0000.0,0009.66,0004.56,0004.24
2023-01-03 19:46:00,,0817.0,4.99,0.00,22.1,20.6,00.0,31.0,23.8,12.8,0000.0,0009.91,0004.57,0004.24
2023-01-03 19:47:00,,0817.0,5.00,0.00,22.1,20.6,00.0,31.0,23.8,12.8,0000.0,0009.87,0004.54,0004.23
2023-01-03 19:48:00,,0817.0,4.99,0.00,22.1,20.6,00.0,31.0,23.8,12.7,0000.0,0009.50,0004.49,0004.21
2023-01-03 19:49:00,,0817.1,5.00,0.00,22.1,20.6,00.0,31.0,23.8,12.8,0000.0,0008.74,0004.46,0004.18
2023-01-03 19:50:00,,0817.0,5.00,0.00,22.1,20.6,00.0,31.0,23.8,12.8,0000.0,0008.71,0004.44,0004.15
2023-01-03 19:51:00,,0816.9,5.00,0.00,22.1,20.7,00.0,31.0,23.8,13.0,0000.0,0008.76,0004.43,0004.12
2023-01-03 19:52:00,,0816.9,5.01,0.00,22.1,20.7,00.0,31.0,23.9,12.9,0000.0,0009.00,0004.39,0004.08
2023-01-03 19:53:00,,0817.0,5.01,0.00,22.1,20.8,00.0,31.0,23.9,12.8,0000.0,0009.50,0004.30,0004.02
2023-01-03 19:54:00,,0816.9,5.00,0.00,22.1,20.8,00.0,31.0,23.9,12.8,0000.0,0009.37,0004.27,0003.99
2023-01-03 19:55:00,,0817.0,5.00,0.00,22.1,20.8,00.0,31.0,23.9,12.8,0000.0,0008.65,0004.20,0003.95
2023-01-03 19:56:00,,0816.9,5.00,0.00,22.1,20.8,00.0,31.0,23.9,12.8,0000.0,0008.25,0004.12,0003.89
2023-01-03 19:57:00,,0816.9,4.99,0.00,22.1,20.7,00.0,31.0,23.8,12.8,0000.0,0008.31,0004.09,0003.85
2023-01-03 19:58:00,,0816.9,5.01,0.00,22.1,21.2,00.0,30.9,23.9,12.8,0000.0,0008.53,0004.05,0003.82
2023-01-03 19:59:00,,0817.0,5.00,0.00,22.2,22.3,00.0,30.9,24.2,12.7,0000.0,0008.53,0004.04,0003.78
